Tracking 25954 objects as of 14-Aug-2022
HD Live streaming from Space Station
objects crossing your sky now

SL-24 R/B

Track SL-24 R/B now!
10-day predictions


NORAD ID: 31699
Int'l Code: 2007-026B
Perigee: 511.1 km
Apogee: 1,008.0 km
Inclination: 97.5 °
Period: 99.9 minutes
Semi major axis: 7130 km
RCS: 6.666 m2 (large)
Launch date: June 15, 2007
Source: Commonwealth of Independent States (former USSR) (CIS)
Launch site: TYURATAM MISSILE AND SPACE COMPLEX (TTMTR)

Note: This is a ROCKET BODY
aabbcc
Your satellite tracking list
Your tracking list is empty




NASA's NSSDC Master Catalog

Two Line Element Set (TLE):
1 31699U 07026B   22226.32729788  .00000268  00000-0  46954-4 0  9991
2 31699  97.5057 343.0804 0348405  31.8834 343.4087 14.41836257797087
Source of the keplerian elements: AFSPC